Clemson, SC

7:54 PM EDT on September 30, 2016 (GMT -0400)
Oconee County Regional

Weather History for KCEU - January, 2002

Change the Weather History Date:

Thursday, January 10, 2002

  Actual Average Record
Temperature  
Mean Temperature 56 °F -  
Max Temperature 66 °F 47 °F 79 °F (1930)
Min Temperature 46 °F 29 °F 1 °F (1970)
Degree Days  
Heating Degree Days 9    
Growing Degree Days 6 (Base 50)    
Moisture  
Dew Point 44 °F    
Average Humidity 68    
Maximum Humidity 83    
Minimum Humidity 45    
Precipitation  
Precipitation 0.00 in - - ()
Sea Level Pressure  
Sea Level Pressure 30.03 in    
Wind  
Wind Speed 11 mph (SW)    
Max Wind Speed 17 mph    
Max Gust Speed 25 mph    
Visibility 10 miles    
Events      
Averages and records for this station are not official NWS values.
T = Trace of Precipitation, MM = Missing Value Source: NWS Daily Summary

Daily Weather History Graph

Daily Weather History Graph

Search for Another Location

Airport or City:

Trip Planner

Search our weather history database for the weather conditions in past years. The results will help you decide how hot, cold, wet, or windy it might be!

Date:

Astronomy

Jan. 10, 2002 Rise Set
Actual Time 7:39 AM EST 5:39 PM EST
Civil Twilight 7:11 AM EST 6:06 PM EST
Nautical Twilight 6:40 AM EST 6:38 PM EST
Astronomical Twilight 6:09 AM EST 7:08 PM EST
Moon 5:03 AM EST (1/10) 3:15 PM EST (1/10)
Length of Visible Light 10h 55m
Length of Day
10h 00m
Waning Crescent, 8% of the Moon is Illuminated
Jan 10
Waning Crescent
Jan 13
New
Jan 21
First Quarter
Jan 28
Full
Feb 4
Last Quarter

Hourly Weather History & Observations

Time (EST) Temp. Windchill Dew Point Humidity Pressure Visibility Wind Dir Wind Speed Gust Speed Precip Events Conditions
12:54 AM 50.0 °F - 37.9 °F 63% 30.04 in 10.0 mi SW 12.7 mph 19.6 mph N/A   Clear
1:54 AM 48.9 °F - 39.0 °F 69% 30.05 in 10.0 mi SW 13.8 mph - N/A   Clear
2:54 AM 48.9 °F - 39.0 °F 69% 30.04 in 10.0 mi SW 11.5 mph - N/A   Clear
3:54 AM 48.0 °F - 39.9 °F 74% 30.04 in 10.0 mi WSW 11.5 mph - N/A   Clear
4:54 AM 46.9 °F - 39.9 °F 77% 30.03 in 10.0 mi SW 9.2 mph - N/A   Clear
5:54 AM 46.9 °F - 41.0 °F 80% 30.03 in 10.0 mi SSW 10.4 mph - N/A   Clear
6:54 AM 46.0 °F 41.9 °F 41.0 °F 83% 30.05 in 10.0 mi SW 8.1 mph - N/A   Clear
7:54 AM 46.0 °F 41.9 °F 41.0 °F 83% 30.06 in 10.0 mi SW 8.1 mph - N/A   Clear
8:54 AM 48.0 °F - 42.1 °F 80% 30.06 in 10.0 mi SW 9.2 mph - N/A   Clear
9:54 AM 53.1 °F - 44.1 °F 71% 30.07 in 10.0 mi SW 9.2 mph - N/A   Clear
10:54 AM 59.0 °F - 45.0 °F 60% 30.07 in 10.0 mi SSW 10.4 mph - N/A   Clear
11:54 AM 62.1 °F - 46.0 °F 56% 30.05 in 10.0 mi WSW 11.5 mph 17.3 mph N/A   Clear
12:54 PM 66.0 °F - 46.9 °F 50% 30.01 in 10.0 mi SSW 10.4 mph - N/A   Clear
1:54 PM 66.9 °F - 45.0 °F 45% 29.99 in 10.0 mi WSW 17.3 mph - N/A   Clear
2:54 PM 66.0 °F - 45.0 °F 47% 29.99 in 10.0 mi West 13.8 mph - N/A   Clear
3:54 PM 64.9 °F - 46.9 °F 52% 29.99 in 10.0 mi SW 16.1 mph 20.7 mph N/A   Clear
4:54 PM 61.0 °F - 48.0 °F 62% 30.00 in 10.0 mi WSW 17.3 mph 25.3 mph N/A   Clear
5:54 PM 60.1 °F - 48.0 °F 64% 30.02 in 10.0 mi WSW 15.0 mph - N/A   Partly Cloudy
6:54 PM 59.0 °F - 48.0 °F 67% 30.04 in 10.0 mi SW 10.4 mph - N/A   Overcast
7:54 PM 59.0 °F - 48.0 °F 67% 30.04 in 10.0 mi SW 6.9 mph - N/A   Overcast
8:54 PM 55.9 °F - 48.0 °F 75% 30.01 in 10.0 mi Variable 3.5 mph - N/A   Clear
9:54 PM 55.0 °F - 48.0 °F 77% 30.02 in 10.0 mi WSW 4.6 mph - N/A   Clear
10:54 PM 54.0 °F - 48.0 °F 80% 30.02 in 10.0 mi WSW 5.8 mph - N/A   Partly Cloudy
11:54 PM 54.0 °F - 46.0 °F 75% 30.00 in 10.0 mi SW 6.9 mph - N/A   Mostly Cloudy